Tracking 28790 objects as of 19-Apr-2024
HD Live streaming from Space Station
objects crossing your sky now

COSMOS 2251 DEB

Track COSMOS 2251 DEB now!
10-day predictions


NORAD ID: 33826
Int'l Code: 1993-036BT
Perigee: 693.5 km
Apogee: 850.8 km
Inclination: 74.1 °
Period: 100.1 minutes
Semi major axis: 7143 km
RCS: 0.1316 m2 (medium)
Launch date: June 16, 1993
Source: Commonwealth of Independent States (former USSR) (CIS)
Launch site: PLESETSK MISSILE AND SPACE COMPLEX (PKMTR)

Note: This is SATELLITE DEBRIS
Your satellite tracking list
Your tracking list is empty




NASA's NSSDC Master Catalog

Two Line Element Set (TLE):
1 33826U 93036BT  24109.39717539  .00004484  00000-0  13891-2 0  9997
2 33826  74.0650  92.7099 0110120 290.8876 195.3469 14.38022716790521
Source of the keplerian elements: AFSPC